Yuma MCAS, AZ

12:54 PM MST on August 21, 2017 (GMT -0700)
Yuma Marine Corps Air Station

Weather History for KNYL - September, 2011

Change the Weather History Date:

Monday, September 19, 2011

  Actual Average Record
Temperature  
Mean Temperature 91 °F -  
Max Temperature 105 °F 101 °F 113 °F (2010)
Min Temperature 76 °F 76 °F 55 °F (1907)
Degree Days  
Heating Degree Days 0 0  
Month to date heating degree days 0 0  
Since 1 July heating degree days 0 0  
Cooling Degree Days 26 23  
Month to date cooling degree days 501 493  
Year to date cooling degree days 3943 3946  
Growing Degree Days 40 (Base 50)    
Moisture  
Dew Point 48 °F    
Average Humidity 30    
Maximum Humidity 50    
Minimum Humidity 10    
Precipitation  
Precipitation 0.00 in 0.02 in 0.84 in (1935)
Month to date precipitation 0.58 0.36  
Year to date precipitation 1.41 2.45  
Sea Level Pressure  
Sea Level Pressure 29.85 in    
Wind  
Wind Speed 3 mph (SW)    
Max Wind Speed 10 mph    
Max Gust Speed 15 mph    
Visibility 10 miles    
Events      
T = Trace of Precipitation, MM = Missing Value Source: NWS Daily Summary

Daily Weather History Graph

Daily Weather History Graph

Search for Another Location

Airport or City:

Trip Planner

Search our weather history database for the weather conditions in past years. The results will help you decide how hot, cold, wet, or windy it might be!

Date:

Astronomy

Sep. 19, 2011 Rise Set
Actual Time 6:24 AM MST 6:39 PM MST
Civil Twilight 5:59 AM MST 7:03 PM MST
Nautical Twilight 5:31 AM MST 7:32 PM MST
Astronomical Twilight 5:02 AM MST 8:01 PM MST
Moon 11:12 PM MST (9/19) 12:55 PM MST (9/19)
Length of Visible Light 13h 04m
Length of Day
12h 14m
Waning Gibbous, 58% of the Moon is Illuminated
Sep 19
Waning Gibbous
Sep 20
Last Quarter
Sep 27
New
Oct 3
First Quarter
Oct 11
Full

Hourly Weather History & Observations

Time (MST) Temp. Heat Index Dew Point Humidity Pressure Visibility Wind Dir Wind Speed Gust Speed Precip Events Conditions
12:55 AM 80.1 °F 80.6 °F 57.9 °F 47% 29.90 in 10.0 mi South 5.8 mph - N/A   Clear
1:55 AM 80.1 °F 80.1 °F 55.0 °F 42% 29.89 in 10.0 mi SSE 4.6 mph - N/A   Clear
2:55 AM 79.0 °F - 54.0 °F 42% 29.88 in 10.0 mi SSE 5.8 mph - N/A   Clear
3:55 AM 78.1 °F - 54.0 °F 43% 29.89 in 10.0 mi Calm Calm - N/A   Clear
4:55 AM 77.0 °F - 55.0 °F 47% 29.89 in 10.0 mi Calm Calm - N/A   Clear
5:55 AM 77.0 °F - 55.9 °F 48% 29.90 in 10.0 mi Calm Calm - N/A   Clear
6:55 AM 75.9 °F - 55.9 °F 50% 29.90 in 10.0 mi Calm Calm - N/A   Clear
7:55 AM 82.9 °F 81.9 °F 54.0 °F 37% 29.91 in 10.0 mi Calm Calm - N/A   Clear
8:55 AM 84.9 °F 83.6 °F 55.0 °F 36% 29.92 in 10.0 mi Calm Calm - N/A   Clear
9:55 AM 91.0 °F 88.5 °F 53.1 °F 27% 29.92 in 10.0 mi Calm Calm - N/A   Clear
10:55 AM 96.1 °F - 48.0 °F 19% 29.91 in 10.0 mi NNE 3.5 mph - N/A   Clear
11:55 AM 100.0 °F - 46.9 °F 16% 29.89 in 10.0 mi ENE 5.8 mph - N/A   Clear
12:55 PM 104.0 °F - 44.1 °F 13% 29.86 in 10.0 mi NNE 6.9 mph - N/A   Clear
1:55 PM 104.0 °F - 37.9 °F 10% 29.84 in 10.0 mi NW 6.9 mph - N/A   Clear
2:55 PM 102.9 °F - 39.9 °F 12% 29.81 in 10.0 mi SW 8.1 mph - N/A   Clear
3:55 PM 105.1 °F - 37.9 °F 10% 29.80 in 10.0 mi South 8.1 mph - N/A   Clear
4:55 PM 102.9 °F - 37.9 °F 11% 29.78 in 10.0 mi South 6.9 mph - N/A   Clear
5:55 PM 102.0 °F - 37.0 °F 11% 29.78 in 10.0 mi Calm Calm - N/A   Clear
6:55 PM 99.0 °F - 37.0 °F 12% 29.78 in 10.0 mi WSW 4.6 mph - N/A   Clear
7:55 PM 93.9 °F - 41.0 °F 16% 29.79 in 10.0 mi West 5.8 mph - N/A   Clear
8:55 PM 90.0 °F - 46.9 °F 23% 29.80 in 10.0 mi West 3.5 mph - N/A   Clear
9:55 PM 88.0 °F - 46.9 °F 24% 29.81 in 10.0 mi Calm Calm - N/A   Clear
10:55 PM 84.9 °F - 46.9 °F 27% 29.81 in 10.0 mi WNW 3.5 mph - N/A   Clear
11:55 PM 84.0 °F - 46.9 °F 27% 29.81 in 10.0 mi Calm Calm - N/A   Clear